User: anonymous   Login
Location: Pasadena, ca
(34.1243°N, 118.1037°W)
Time: 17:37:58
(UTC-07:00)
Language:

Tiangong 2 - Orbit

View from above orbital plane
View from above orbital plane
View from above satellite
View from above satellite

Ground track
Ground track

The orbit data is extracted from the following two-line orbital elements,

1 41765U 16057A   18175.80951230  .00008333  00000-0  10902-3 0  9994
2 41765  42.7835 294.9521 0007998 312.6790 185.1266 15.58914893101214
Epoch (UTC): 24 June 2018 19:25:41
Eccentricity: 0.0007998
inclination: 42.7835°
perigee height: 385 km
apogee height: 396 km
right ascension of ascending node: 294.9521°
argument of perigee: 312.6790°
revolutions per day: 15.58914893
mean anomaly at epoch: 185.1266°
orbit number at epoch: 10121

The dashed part of the orbit path shows where the satellite is in the earth's shadow,  

DLR